Regional Weather Roundup
Issued by NWS

Home | Current Version | Previous Version | Text Only | Print | Product List | Glossary Off
Versions: 1 2 3 4 5 6 7 8 9 10 11 12 13 14 15 16 17 18 19 20 21 22 23 24 25 26 27 28 29 30 31 32 33 34 35 36 37 38 39 40 41 42 43 44 45 46 47 48 49 50

000
ASUS44 KMEG 010600
RWRTN
TENNESSEE HOURLY STATE WEATHER ROUNDUP
NATIONAL WEATHER SERVICE MEMPHIS TN
100 AM CDT WED OCT 01 2014

TNZ002-004-019-021-049-052-054-088>092-010700-
WEST TENNESSEE

CITY           SKY/WX    TMP DP  RH WIND       PRES   REMARKS
MEMPHIS INTL   PTCLDY    74  61  63 CALM      29.88F
NWS MEMPHIS      N/A     67 N/A N/A MISG        N/A
JACKSON        CLEAR     62  59  90 CALM      29.90F
DYERSBURG      CLEAR     64  54  68 CALM      29.91S
UNION CITY     CLEAR     57  57 100 CALM      29.90S
PARIS          CLEAR     57  54  88 CALM      29.92F
LEXINGTON      CLEAR     59  57  94 CALM      29.91S
SAVANNAH       CLEAR     59  59 100 CALM      29.92S
$$

TNZ008-025-027-028-033-062-065-066-010700-
NORTH MIDDLE TENNESSEE

CITY           SKY/WX    TMP DP  RH WIND       PRES   REMARKS
NASHVILLE      PTCLDY    62  56  80 CALM      29.94R
CLARKSVILLE    CLEAR     59  57  93 CALM      29.92S
COOKEVILLE     CLEAR     52  52 100 CALM      29.95S
CROSSVILLE     PTCLDY    58  51  78 CALM      29.99S
$$

TNZ061-075-076-078-094-096-097-010700-
SOUTH MIDDLE TENNESSEE

CITY           SKY/WX    TMP DP  RH WIND       PRES   REMARKS
FAYETTEVILLE   CLEAR     61  57  88 MISG      29.94S
TULLAHOMA      CLEAR     57  54  88 CALM      29.96S
WINCHESTER     CLEAR     57  55  94 CALM      29.95S
SHELBYVILLE    CLEAR     59  55  88 E3        29.95S
$$

TNZ017-018-042-046-047-010700-
NORTHEAST TENNESSEE

CITY           SKY/WX    TMP DP  RH WIND       PRES   REMARKS
TRI CITIES     CLEAR     54  51  90 CALM      29.98S FOG
ELIZABETHTON   CLEAR     55  54  94 CALM      29.99S
$$

TNZ012-013-036-069-073-074-010700-
CENTRAL EAST TENNESSEE

CITY           SKY/WX    TMP DP  RH WIND       PRES   REMARKS
KNOXVILLE      CLEAR     62  57  83 CALM      29.94S
OAK RIDGE      PTCLDY    59  57  93 CALM      29.97R
GATLINBURG     CLEAR     55  54  94 CALM      29.96S
MORRISTOWN     CLEAR     57  55  94 CALM      29.97F
$$

TNZ083-085-099-010700-
SOUTHEAST TENNESSEE

CITY           SKY/WX    TMP DP  RH WIND       PRES   REMARKS
CHATTANOOGA    CLEAR     64  61  90 CALM      29.94S
$$

SKY/WX REPORTED AS FAIR MEANS FEW OR NO CLOUDS BELOW
12 THOUSAND FEET.



USA.gov is the U.S. government's official web portal to all federal, state and local government web resources and services.